Погода в Мезиновском

Россия / Владимирская область     55°28′37″N   40°24′33″E
темп.,
°C
ветер,
м/с
пор.,
м/с
влажн.,
%
обл.,
%
осадки,
мм/ч
давл.,
гПа
погр.,
м
6 мая, чт
чт600:00+9ююз31093100 0.4 1009396
03:00+7ююз289477 0.6 1010191
06:00+8ю31090100 0.0 1009262
09:00+13ю51270100 0.0 1009609
12:00+17ююз61353100 0.1 10082096
15:00+15ююз71567100 1.3 10082014
18:00+14ююз71564100 0.4 10071778
21:00+10юз51581100 1.1 10081321
7 мая, пт
пт700:00+9юз4995100 1.3 1009749
03:00+7юз3894100 1.5 1010373
06:00+7юз3793100 0.0 1011410
09:00+9зюз3672100 0.0 1012930
12:00+14зюз46385 0.0 10132009
15:00+15зюз46345 0.0 10132227
18:00+14юз354586 0.0 10141017
21:00+8ю3667100 0.0 101588
8 мая, сб
сб800:00+7ююв397179 0.0 1015163
03:00+6ююв3127390 0.0 1015258
06:00+7ююв41369100 0.0 1013453
09:00+12ююв61261100 0.0 10111088
12:00+12ююв61563100 0.2 10091718
15:00+10ююв71588100 1.0 10071121
18:00+10ююв51396100 3.1 1004862
21:00+9юз41194100 7.1 1004706
9 мая, вс
вс900:00+7зюз51090100 0.6 1006744
03:00+5юз51091100 0.6 1008862
06:00+5зюз41086100 0.0 10101095
09:00+7з6871100 0.1 10121088
12:00+10з4655100 0.0 10151301
15:00+12сз3547100 0.0 10161669
18:00+11с2655100 0.1 10191510
21:00+6ссз22755 0.1 102214
10 мая, пн
пн1000:00+4ссз28865 0.0 1024148
03:00+3ссз37890 0.0 1026126
06:00+4с27810 0.0 1028174
09:00+11ссв474036 0.0 1028997
12:00+14св45310 0.0 10291563
15:00+16св45315 0.0 10281592
18:00+14св35454 0.0 1028459
21:00+8всв22685 0.0 102915